Notices

What's New in latest Release from April 7th, 2021:

- Updated Glossary, including Speed of Maximum Gust, and Total Hourly Precipitation

- Updated national and regional climate services offices contacts and prices information

- Addition of station inventory lists for 1981-2010, 1971-2000, and 1961-1990 Normals.

If you haven't already, please take our survey and provide feedback about our website: https://eccc.sondage-survey.ca/f/LanguageSelection.aspx?s=442ca660-fcf1-47c0-95a9-59707d6fd709

Hourly Data Report for April 09, 2019

MIRAMICHI RCS
NEW BRUNSWICK
Current Station Operator: ECCC - MSC

47°00'34.000" N
65°27'54.000" W
33.00 m
8100989
71744
ACQ

Download Data

Hourly Data (April 2019)
Hourly Data Report for April 9, 2019
TIME
LST
Temp Definition
°C
Dew Point Definition
°C
Rel Hum Definition
%
Precip. Amount Definition
mm

Wind Dir Definition
10's deg

Wind Spd Definition
km/h
Visibility Definition
km
Stn Press Definition
kPa
Hmdx Definition


Wind Chill Definition


Weather Definition


00:00 -5.0 -6.7 88 0.0 6 15   101.08   -11 LegendNANA
01:00 -5.2 -6.6 90 0.2 6 9   101.10   -9 LegendNANA
02:00 -5.3 -6.7 90 0.5 7 9   101.07   -9 LegendNANA
03:00 -5.5 -6.8 91 0.2 7 8   101.02   -9 LegendNANA
04:00 -5.7 -7.2 90 0.0 7 8   101.07   -9 LegendNANA
05:00 -5.9 -7.8 87 0.0 2 6   101.04   -9 LegendNANA
06:00 -6.7 -8.2 90 0.0 32 3   101.10   -8 LegendNANA
07:00 -6.1 -8.6 82 0.0 2 5   101.04   -9 LegendNANA
08:00 -4.6 -8.7 73 0.0 4 10   100.99   -9 LegendNANA
09:00 -2.8 -8.1 67 0.0 8 15   101.02   -8 LegendNANA
10:00 -3.2 -8.4 67 0.0 9 23   100.86   -10 LegendNANA
11:00 -2.3 -8.5 62 0.0 9 15   100.87   -7 LegendNANA
12:00 -1.0 -8.2 58 0.0 10 12   100.80   -5 LegendNANA
13:00 -0.5 -8.6 54 0.0 9 11   100.72   -4 LegendNANA
14:00 -0.2 -10.0 48 0.0 10 11   100.65   -4 LegendNANA
15:00 0.1 -9.8 47 0.0 8 12   100.57     LegendNANA
16:00 0.0 -10.5 45 0.0 7 11   100.55   -4 LegendNANA
17:00 -0.5 -9.3 51 0.0 7 15   100.51   -5 LegendNANA
18:00 -1.3 -9.7 53 0.0 9 16   100.47   -6 LegendNANA
19:00 -1.6 -8.5 59 0.0 11 12   100.46   -6 LegendNANA
20:00 -1.9 -8.7 60 0.0 13 10   100.44   -6 LegendNANA
21:00 -2.1 -8.1 64 0.0 13 10   100.43   -6 LegendNANA
22:00 -2.4 -7.1 70 0.0 10 8   100.35   -6 LegendNANA
23:00 -2.4 -7.3 69 0.0 14 3   100.37   -4 LegendNANA

Notes on Data Quality.

Legend

  • E = Estimated
  • M = Missing
  • NA = Not Available*
  • [empty] = Indicates an unobserved value
Date modified: